[[{"header":{"parameterUnit":"m.s-1","parameterCategory":1,"la1":30.2992,"la2":30.254,"lo1":-89.0895,"lo2":-89.0443,"dy":0.0025,"dx":0.0025,"nx":19,"ny":19,"refTime":"2026-04-16T09:00:00:Z","depth":0,"parameterNumber":2,"parameterNumberName":"U-component_of_WINDS"},"data":[0,0,0,0.9088,0.9089,0.9139,0.9139,0.9204,0.9205,0,0,0,0,0,0,0,0,0,0,0,0.9075,0.9075,0.9088,0.9089,0.9139,0.9139,0.9204,0.9205,0,0,0,0,0,0,0,0,0,0,0,0.9074,0.9075,0.9076,0.9089,0.9139,0.9139,0.9204,0.9166,0,0,0,0,0,0,0,0,0,0,0.9117,0.9106,0.9075,0.9076,0.909,0.9139,0.9139,0.9164,0.9168,0.9182,0,0.9196,0,0.9201,0.9209,0.9209,0,0,0,0.9088,0.9103,0.9115,0.9076,0.909,0.9139,0.9116,0.9166,0.9171,0.9188,0.9196,0.9199,0.9202,0.921,0.921,0.9293,0.9294,0,0,0.9085,0.9084,0.9111,0.9118,0.9111,0.9115,0.9118,0.9169,0.9178,0.9197,0.92,0.9203,0.921,0.9211,0.9293,0.9294,0,0,0,0.9078,0.9082,0.9093,0.9115,0.9124,0.9116,0.912,0.9176,0.918,0.9201,0.9204,0.921,0.9211,0.9293,0.9293,0.9312,0,0,0,0.9076,0.9078,0.9092,0.9092,0.9123,0.9151,0.9126,0.9176,0.9182,0.9204,0.9211,0.9212,0.9292,0.9293,0.9311,0.9322,0,0,0,0.9071,0.9078,0.9085,0.9092,0.9113,0.915,0.9157,0.9177,0.9184,0.921,0.9212,0.9292,0.9293,0.9309,0.9319,0.9341,0,0,0,0.9065,0.9103,0.9086,0.913,0.9113,0.9162,0.9156,0.9193,0.9218,0.9211,0.9292,0.9293,0.9309,0.9318,0.934,0.9359,0.9367,0,0,0.9113,0.9109,0.9135,0.912,0.9172,0.9155,0.9209,0.9233,0.9237,0.9274,0.9276,0.9311,0.9319,0.9341,0.9416,0.9423,0,0,0,0.915,0.9168,0.9182,0.9205,0.9223,0.9239,0.9254,0.9263,0.9294,0.9256,0.9326,0.9331,0.9344,0.9353,0.9358,0.9369,0.9298,0.9298,0.9298,0.9216,0.9217,0.926,0.9266,0.9288,0.9302,0.932,0.9333,0.933,0.9346,0.9357,0.9402,0.9413,0.9417,0.9428,0.9369,0.9369,0.9369,0.9369,0.9285,0.931,0.9303,0.9341,0.9341,0.9373,0.9388,0.9384,0.9412,0.9395,0.9407,0.9386,0.9424,0.9434,0.937,0.937,0.937,0.937,0.937,0.9328,0.934,0.9349,0.9379,0.9403,0.9409,0.9436,0.9436,0.9437,0.9449,0.9458,0.9458,0.9456,0.9453,0.9454,0.9454,0.9454,0.9454,0.9454,0.9368,0.9377,0.94,0.9421,0.9434,0.9451,0.9464,0.9477,0.9491,0.9489,0.9489,0.9482,0.9428,0.9414,0.9457,0.9456,0.9456,0.9456,0.9455,0.9435,0.9419,0.9454,0.9467,0.949,0.9512,0.9512,0.9537,0.9548,0.9561,0.9552,0.9512,0.9508,0.9504,0.9492,0.9552,0.9552,0.9552,0.9552,0.9469,0.9467,0.9502,0.9522,0.9542,0.9545,0.9582,0.9592,0.96,0.9606,0.9597,0.9582,0.9577,0.9576,0.957,0.9559,0.9635,0.9635,0.9635,0.951,0.9509,0.9542,0.9548,0.9566,0.958,0.9615,0.9638,0.9643,0.9638,0.961,0.9607,0.9581,0.9574,0.9567,0.9558,0.9537,0,0]},{"header":{"parameterUnit":"m.s-1","parameterCategory":1,"la1":30.2992,"la2":30.254,"lo1":-89.0895,"lo2":-89.0443,"dy":0.0025,"dx":0.0025,"nx":19,"ny":19,"refTime":"2026-04-16T09:00:00:Z","depth":0,"parameterNumber":3,"parameterNumberName":"V-component_of_WINDS"},"data":[0,0,0,3.8362,3.8364,3.8434,3.8434,3.8532,3.8532,0,0,0,0,0,0,0,0,0,0,0,3.8349,3.835,3.8362,3.8364,3.8434,3.8434,3.8531,3.8532,0,0,0,0,0,0,0,0,0,0,0,3.8348,3.8349,3.8351,3.8364,3.8434,3.8434,3.8531,3.8475,0,0,0,0,0,0,0,0,0,0,3.8405,3.8401,3.8349,3.8351,3.8365,3.8434,3.8434,3.8472,3.8478,3.8504,0,3.8531,0,3.8534,3.854,3.854,0,0,0,3.8357,3.8396,3.8408,3.8351,3.8365,3.8434,3.8401,3.8475,3.8483,3.8512,3.8532,3.8536,3.8535,3.854,3.8541,3.8714,3.8716,0,0,3.8354,3.8365,3.8403,3.8413,3.8406,3.8398,3.8403,3.848,3.8501,3.8533,3.8538,3.8537,3.8541,3.8542,3.8713,3.8715,0,0,0,3.8347,3.8362,3.8373,3.8409,3.8422,3.8401,3.8406,3.8498,3.85,3.8539,3.8538,3.8542,3.8543,3.8712,3.8714,3.8779,0,0,0,3.8344,3.8358,3.8371,3.8379,3.8421,3.8461,3.8422,3.8495,3.8503,3.8537,3.8542,3.8544,3.8711,3.8713,3.8775,3.8808,0,0,0,3.8341,3.8358,3.8371,3.8379,3.841,3.846,3.8466,3.8496,3.8503,3.854,3.8544,3.871,3.8713,3.8771,3.8801,3.8855,0,0,0,3.8341,3.8428,3.8372,3.8468,3.841,3.8501,3.8466,3.8533,3.8572,3.8542,3.8711,3.8714,3.877,3.8797,3.8851,3.8902,3.8925,0,0,3.8457,3.8442,3.8498,3.845,3.8554,3.8489,3.8602,3.8627,3.8619,3.8682,3.8686,3.8776,3.8801,3.8854,3.9052,3.907,0,0,0,3.8538,3.8578,3.8603,3.8643,3.8665,3.8685,3.8692,3.8701,3.8755,3.8655,3.8811,3.8825,3.8856,3.888,3.8895,3.892,3.8726,3.8725,3.8725,3.8717,3.8703,3.8793,3.8788,3.8826,3.8832,3.8861,3.8873,3.8848,3.8885,3.8903,3.9025,3.9053,3.9065,3.9091,3.8931,3.8931,3.8931,3.8931,3.8883,3.8936,3.8901,3.8976,3.896,3.9022,3.903,3.901,3.9063,3.901,3.9037,3.898,3.9085,3.9107,3.8936,3.8935,3.8935,3.8934,3.8934,3.8997,3.902,3.9031,3.9085,3.9128,3.9118,3.9171,3.9155,3.914,3.9166,3.9182,3.9181,3.9176,3.9175,3.9176,3.9176,3.9176,3.9177,3.9177,3.9111,3.9121,3.9168,3.9199,3.922,3.9247,3.9253,3.9273,3.9291,3.9275,3.9275,3.9244,3.9099,3.9062,3.9183,3.9182,3.9181,3.9181,3.918,3.9282,3.9241,3.9314,3.9337,3.9369,3.9411,3.939,3.9433,3.9447,3.9473,3.9437,3.9333,3.9316,3.9304,3.9273,3.9441,3.9441,3.9441,3.9441,3.9377,3.9368,3.9438,3.9474,3.9508,3.9496,3.9576,3.958,3.9578,3.9585,3.9559,3.9517,3.9505,3.9495,3.9479,3.9449,3.9659,3.9659,3.9659,3.9481,3.9473,3.9546,3.9545,3.9569,3.9589,3.9663,3.9704,3.9693,3.9668,3.959,3.9581,3.9513,3.9492,3.9464,3.9439,3.9385,0,0]}]]